Spartanburg, SC

1:03 AM EDT on June 25, 2017 (GMT -0400)
Spartanburg Downtown Memorial

Weather History for KSPA - December, 2011

Change the Weather History Date:

Thursday, December 29, 2011

  Actual Average (KGSP) Record (KGSP)
Temperature  
Mean Temperature 42 °F -  
Max Temperature 55 °F 51 °F 72 °F (1984)
Min Temperature 28 °F 32 °F 11 °F (1917)
Degree Days  
Heating Degree Days 24    
Moisture  
Dew Point 32 °F    
Average Humidity 70    
Maximum Humidity 100    
Minimum Humidity 41    
Precipitation  
Precipitation 0.00 in - - ()
Sea Level Pressure  
Sea Level Pressure 30.03 in    
Wind  
Wind Speed 2 mph (SW)    
Max Wind Speed 9 mph    
Max Gust Speed -    
Visibility 10 miles    
Events      
Averages and records for this station are not official NWS values.
T = Trace of Precipitation, MM = Missing Value Source: NWS Daily Summary

Daily Weather History Graph

Daily Weather History Graph

Search for Another Location

Airport or City:

Trip Planner

Search our weather history database for the weather conditions in past years. The results will help you decide how hot, cold, wet, or windy it might be!

Date:

Astronomy

Dec. 29, 2011 Rise Set
Actual Time 7:34 AM EST 5:24 PM EST
Civil Twilight 7:06 AM EST 5:52 PM EST
Nautical Twilight 6:35 AM EST 6:24 PM EST
Astronomical Twilight 6:04 AM EST 6:55 PM EST
Moon 10:40 AM EST (12/29) 10:46 PM EST (12/29)
Length of Visible Light 10h 46m
Length of Day
9h 50m
Waxing Crescent, 26% of the Moon is Illuminated
Dec 29
Waxing Crescent
Jan 1
First Quarter
Jan 9
Full
Jan 16
Last Quarter
Jan 23
New

Hourly Weather History & Observations

Time (EST) Temp. Windchill Dew Point Humidity Pressure Visibility Wind Dir Wind Speed Gust Speed Precip Events Conditions
12:15 AM 33.8 °F - 32.0 °F 93% 30.04 in 10.0 mi Calm Calm - N/A   Clear
12:35 AM 33.8 °F - 32.0 °F 93% 30.04 in 10.0 mi Calm Calm - N/A   Clear
1:15 AM 32.0 °F - 30.2 °F 93% 30.04 in 10.0 mi Calm Calm - N/A   Clear
1:35 AM 32.0 °F - 30.2 °F 93% 30.04 in 10.0 mi Calm Calm - N/A   Clear
1:55 AM 32.0 °F - 32.0 °F 100% 30.04 in 10.0 mi Calm Calm - N/A   Clear
2:15 AM 32.0 °F - 32.0 °F 100% 30.05 in 10.0 mi Calm Calm - N/A   Clear
2:35 AM 32.0 °F - 30.2 °F 93% 30.04 in 10.0 mi Calm Calm - N/A   Clear
2:55 AM 32.0 °F 28.7 °F 30.2 °F 93% 30.05 in 10.0 mi North 3.5 mph - N/A   Clear
3:15 AM 32.0 °F - 30.2 °F 93% 30.05 in 10.0 mi Calm Calm - N/A   Clear
3:35 AM 30.2 °F - 30.2 °F 100% 30.05 in 10.0 mi Calm Calm - N/A   Clear
3:55 AM 30.2 °F - 30.2 °F 100% 30.05 in 10.0 mi Calm Calm - N/A   Clear
4:15 AM 30.2 °F - 30.2 °F 100% 30.04 in 10.0 mi Calm Calm - N/A   Clear
8:15 AM 28.4 °F - 28.4 °F 100% 30.06 in 10.0 mi Calm Calm - N/A   Clear
8:35 AM 30.2 °F - 30.2 °F 100% 30.06 in 10.0 mi Calm Calm - N/A   Clear
8:55 AM 32.0 °F - 32.0 °F 100% 30.07 in 10.0 mi Calm Calm - N/A   Clear
9:15 AM 35.6 °F - 33.8 °F 93% 30.07 in 10.0 mi Calm Calm - N/A   Clear
9:35 AM 37.4 °F - 32.0 °F 81% 30.07 in 10.0 mi Calm Calm - N/A   Clear
9:55 AM 37.4 °F - 32.0 °F 81% 30.07 in 10.0 mi Calm Calm - N/A   Clear
10:15 AM 39.2 °F - 32.0 °F 75% 30.07 in 10.0 mi Calm Calm - N/A   Clear
10:35 AM 41.0 °F - 32.0 °F 70% 30.07 in 10.0 mi Calm Calm - N/A   Clear
10:55 AM 42.8 °F 41.1 °F 32.0 °F 66% 30.07 in 10.0 mi ESE 3.5 mph - N/A   Clear
11:15 AM 44.6 °F - 32.0 °F 61% 30.06 in 10.0 mi Calm Calm - N/A   Clear
11:35 AM 44.6 °F 42.2 °F 32.0 °F 61% 30.05 in 10.0 mi SSW 4.6 mph - N/A   Clear
12:15 PM 50.0 °F - 32.0 °F 50% 30.03 in 10.0 mi WSW 8.1 mph - N/A   Clear
12:35 PM 50.0 °F - 32.0 °F 50% 30.02 in 10.0 mi West 6.9 mph - N/A   Clear
1:35 PM 51.8 °F - 32.0 °F 47% 30.00 in 10.0 mi SW 6.9 mph - N/A   Clear
1:55 PM 53.6 °F - 32.0 °F 44% 29.99 in 10.0 mi SSW 9.2 mph - N/A   Clear
2:15 PM 53.6 °F - 32.0 °F 44% 29.98 in 10.0 mi WSW 8.1 mph - N/A   Clear
2:35 PM 53.6 °F - 32.0 °F 44% 29.98 in 10.0 mi SW 5.8 mph - N/A   Clear
2:55 PM 55.4 °F - 32.0 °F 41% 29.98 in 10.0 mi South 5.8 mph - N/A   Clear
3:15 PM 55.4 °F - 33.8 °F 44% 29.98 in 10.0 mi WSW 9.2 mph - N/A   Clear
3:55 PM 55.4 °F - 33.8 °F 44% 29.98 in 10.0 mi SW 5.8 mph - N/A   Clear
4:15 PM 55.4 °F - 33.8 °F 44% 29.99 in 10.0 mi SSW 6.9 mph - N/A   Clear
4:35 PM 53.6 °F - 33.8 °F 47% 29.99 in 10.0 mi SSW 8.1 mph - N/A   Clear
4:55 PM 53.6 °F - 33.8 °F 47% 29.99 in 10.0 mi SSW 5.8 mph - N/A   Clear
5:15 PM 53.6 °F - 32.0 °F 44% 29.99 in 10.0 mi SSW 3.5 mph - N/A   Clear
5:35 PM 51.8 °F - 32.0 °F 47% 29.98 in 10.0 mi SW 4.6 mph - N/A   Clear
5:55 PM 50.0 °F - 32.0 °F 50% 29.98 in 10.0 mi SW 4.6 mph - N/A   Clear
6:15 PM 50.0 °F - 32.0 °F 50% 29.99 in 10.0 mi SSW 3.5 mph - N/A   Clear
6:55 PM 50.0 °F - 32.0 °F 50% 29.99 in 10.0 mi Calm Calm - N/A   Clear
7:15 PM 46.4 °F - 32.0 °F 57% 30.00 in 10.0 mi Calm Calm - N/A   Clear
7:35 PM 44.6 °F - 32.0 °F 61% 30.00 in 10.0 mi Calm Calm - N/A   Clear
7:55 PM 44.6 °F - 32.0 °F 61% 30.01 in 10.0 mi Calm Calm - N/A   Clear
8:15 PM 42.8 °F - 32.0 °F 66% 30.01 in 10.0 mi Calm Calm - N/A   Clear
8:35 PM 39.2 °F 37.0 °F 32.0 °F 75% 30.02 in 10.0 mi SW 3.5 mph - N/A   Clear
8:55 PM 41.0 °F 38.0 °F 33.8 °F 76% 30.02 in 10.0 mi SSW 4.6 mph - N/A   Clear
9:15 PM 41.0 °F 38.0 °F 33.8 °F 76% 30.02 in 10.0 mi SW 4.6 mph - N/A   Clear
9:55 PM 42.8 °F 40.1 °F 33.8 °F 70% 30.03 in 10.0 mi SW 4.6 mph - N/A   Clear
10:35 PM 42.8 °F - 33.8 °F 70% 30.04 in 10.0 mi Calm Calm - N/A   Clear
10:55 PM 42.8 °F 41.1 °F 33.8 °F 70% 30.04 in 10.0 mi SW 3.5 mph - N/A   Clear
11:15 PM 42.8 °F - 33.8 °F 70% 30.03 in 10.0 mi Calm Calm - N/A   Clear
11:35 PM 41.0 °F - 33.8 °F 76% 30.03 in 10.0 mi Calm Calm - N/A   Clear
11:55 PM 39.2 °F - 33.8 °F 81% 30.03 in 10.0 mi Calm Calm - N/A   Clear